Location: Andrest
(43.3200°N, 0.0641°E)
Time: 14:54:46
(UTC+00:00)

USA 238 - Pass Details

Date: 01 December 2020
Orbit: 996 x 1216 km, 63.4° (Epoch: 22 January)

Event Time Altitude Azimuth Distance (km) Brightness Sun altitude
Rises 18:49:41 0° 218° (SW) 3,713 7.2 -25.7°
Reaches altitude 10° 18:52:14 10° 220° (SW) 2,779 6.4 -26.1°
Maximum altitude 18:58:46 80° 307° (NW) 1,056 3.6 -27.3°
Enters shadow 19:00:42 50° 25° (NNE) 1,311 3.9 -27.6°
